����������;��������(kWh)
2018-01-01 00:00;74
2018-01-01 00:15;73
2018-01-01 00:30;74,2
2018-01-01 00:45;74,15
2018-01-01 01:00;74,35
2018-01-01 01:15;75
2018-01-01 01:30;75,85
2018-01-01 01:45;77,35
2018-01-01 02:00;79,9
2018-01-01 02:15;79,2
2018-01-01 02:30;78
2018-01-01 02:45;77,45
2018-01-01 03:00;78,25
2018-01-01 03:15;79,65
2018-01-01 03:30;78,55
2018-01-01 03:45;78
2018-01-01 04:00;77,95
2018-01-01 04:15;78,95
2018-01-01 04:30;77,8
2018-01-01 04:45;77,45
2018-01-01 05:00;75,05
2018-01-01 05:15;75,6
2018-01-01 05:30;75,2
2018-01-01 05:45;75,5
2018-01-01 06:00;76,95
2018-01-01 06:15;75,05
2018-01-01 06:30;75,15
2018-01-01 06:45;74,3
2018-01-01 07:00;73,85
2018-01-01 07:15;73,25
2018-01-01 07:30;72,2
2018-01-01 07:45;71
2018-01-01 08:00;69,9
2018-01-01 08:15;66,5
2018-01-01 08:30;70,05
2018-01-01 08:45;65,95
2018-01-01 09:00;68,35
2018-01-01 09:15;71,2
2018-01-01 09:30;67,1
2018-01-01 09:45;68,75
2018-01-01 10:00;72,25
2018-01-01 10:15;71,2
2018-01-01 10:30;70,1
2018-01-01 10:45;72,75
2018-01-01 11:00;71,25
2018-01-01 11:15;71,2
2018-01-01 11:30;74,7
2018-01-01 11:45;72,95
2018-01-01 12:00;71,95
2018-01-01 12:15;73,95
2018-01-01 12:30;71,85
2018-01-01 12:45;71,75
2018-01-01 13:00;72,65
2018-01-01 13:15;70,4
2018-01-01 13:30;71,55
2018-01-01 13:45;70,9
2018-01-01 14:00;66,95
2018-01-01 14:15;67,6
2018-01-01 14:30;66,7
2018-01-01 14:45;66,75
2018-01-01 15:00;66,5
2018-01-01 15:15;67,1
2018-01-01 15:30;66,8
2018-01-01 15:45;67,3
2018-01-01 16:00;68,65
2018-01-01 16:15;66,75
2018-01-01 16:30;68,75
2018-01-01 16:45;68,25
2018-01-01 17:00;70,9
2018-01-01 17:15;72,4
2018-01-01 17:30;74
2018-01-01 17:45;78,95
2018-01-01 18:00;79,6
2018-01-01 18:15;83,2
2018-01-01 18:30;80,4
2018-01-01 18:45;81,35
2018-01-01 19:00;80,35
2018-01-01 19:15;82,2
2018-01-01 19:30;81
2018-01-01 19:45;80,45
2018-01-01 20:00;80,95
2018-01-01 20:15;80,8
2018-01-01 20:30;79,5
2018-01-01 20:45;82,2
2018-01-01 21:00;79,75
2018-01-01 21:15;77,65
2018-01-01 21:30;79,6
2018-01-01 21:45;77,3
2018-01-01 22:00;77,25
2018-01-01 22:15;77,5
2018-01-01 22:30;74,8
2018-01-01 22:45;75,15
2018-01-01 23:00;73,25
2018-01-01 23:15;72,85
2018-01-01 23:30;75,05
2018-01-01 23:45;72,45
2018-01-02 00:00;71,55
2018-01-02 00:15;74,65
2018-01-02 00:30;75,1
2018-01-02 00:45;73,2
2018-01-02 01:00;74,75
2018-01-02 01:15;75,1
2018-01-02 01:30;78,15
2018-01-02 01:45;75,7
2018-01-02 02:00;79,1
2018-01-02 02:15;84,4
2018-01-02 02:30;83,7
2018-01-02 02:45;83,6
2018-01-02 03:00;81,95
2018-01-02 03:15;83,55
2018-01-02 03:30;83,4
2018-01-02 03:45;80,6
2018-01-02 04:00;84
2018-01-02 04:15;82,5
2018-01-02 04:30;81,8
2018-01-02 04:45;79,75
2018-01-02 05:00;79,75
2018-01-02 05:15;77,95
2018-01-02 05:30;76,55
2018-01-02 05:45;78,8
2018-01-02 06:00;78,1
2018-01-02 06:15;78,9
2018-01-02 06:30;78,35
2018-01-02 06:45;78
2018-01-02 07:00;79,05
2018-01-02 07:15;80,15
2018-01-02 07:30;76,85
2018-01-02 07:45;81,35
2018-01-02 08:00;84,05
2018-01-02 08:15;89
2018-01-02 08:30;128,95
2018-01-02 08:45;139,6
2018-01-02 09:00;161,55
2018-01-02 09:15;155,2
2018-01-02 09:30;166,45
2018-01-02 09:45;166,5
2018-01-02 10:00;158,65
2018-01-02 10:15;148,25
2018-01-02 10:30;150,15
2018-01-02 10:45;148,9
2018-01-02 11:00;147,45
2018-01-02 11:15;147,1
2018-01-02 11:30;157,75
2018-01-02 11:45;152,3
2018-01-02 12:00;147,4
2018-01-02 12:15;154,1
2018-01-02 12:30;144,95
2018-01-02 12:45;145,15
2018-01-02 13:00;145,35
2018-01-02 13:15;143,55
2018-01-02 13:30;144,6
2018-01-02 13:45;148,4
2018-01-02 14:00;139,05
2018-01-02 14:15;142,6
2018-01-02 14:30;144,25
2018-01-02 14:45;129,45
2018-01-02 15:00;131,25
2018-01-02 15:15;115,95
2018-01-02 15:30;113,25
2018-01-02 15:45;107,65
2018-01-02 16:00;107,05
2018-01-02 16:15;106,3
2018-01-02 16:30;105,1
2018-01-02 16:45;106,3
2018-01-02 17:00;100,75
2018-01-02 17:15;97,95
2018-01-02 17:30;103,35
2018-01-02 17:45;106,5
2018-01-02 18:00;111,4
2018-01-02 18:15;108,2
2018-01-02 18:30;111,05
2018-01-02 18:45;109,95
2018-01-02 19:00;102,65
2018-01-02 19:15;107,85
2018-01-02 19:30;105,9
2018-01-02 19:45;104,7
2018-01-02 20:00;104,45
2018-01-02 20:15;101,05
2018-01-02 20:30;101,7
2018-01-02 20:45;102,55
2018-01-02 21:00;101,25
2018-01-02 21:15;101,4
2018-01-02 21:30;97,65
2018-01-02 21:45;97,6
2018-01-02 22:00;99
2018-01-02 22:15;96,5
2018-01-02 22:30;97,2
2018-01-02 22:45;97,65
2018-01-02 23:00;95,2
2018-01-02 23:15;95,95
2018-01-02 23:30;89,55
2018-01-02 23:45;93,65
2018-01-03 00:00;93
2018-01-03 00:15;95,45
2018-01-03 00:30;94,35
2018-01-03 00:45;93,4
2018-01-03 01:00;95,5
2018-01-03 01:15;95,45
2018-01-03 01:30;96,6
2018-01-03 01:45;98,45
2018-01-03 02:00;99,65
2018-01-03 02:15;97,85
2018-01-03 02:30;97,5
2018-01-03 02:45;100,9
2018-01-03 03:00;98,5
2018-01-03 03:15;97,5
2018-01-03 03:30;98,65
2018-01-03 03:45;98,65
2018-01-03 04:00;99
2018-01-03 04:15;97,65
2018-01-03 04:30;93,05
2018-01-03 04:45;91,65
2018-01-03 05:00;92,35
2018-01-03 05:15;90,6
2018-01-03 05:30;92,2
2018-01-03 05:45;91,3
2018-01-03 06:00;91,3
2018-01-03 06:15;90,05
2018-01-03 06:30;92,65
2018-01-03 06:45;91,9
2018-01-03 07:00;107,25
2018-01-03 07:15;102,5
2018-01-03 07:30;146,9
2018-01-03 07:45;142,25
2018-01-03 08:00;134
2018-01-03 08:15;136,8
2018-01-03 08:30;143
2018-01-03 08:45;144,35
2018-01-03 09:00;145,55
2018-01-03 09:15;167,7
2018-01-03 09:30;161,65
2018-01-03 09:45;155,65
2018-01-03 10:00;167,7
2018-01-03 10:15;169
2018-01-03 10:30;162,8
2018-01-03 10:45;167,05
2018-01-03 11:00;173,1
2018-01-03 11:15;168,4
2018-01-03 11:30;177,05
2018-01-03 11:45;176,35
2018-01-03 12:00;170,65
2018-01-03 12:15;178,4
2018-01-03 12:30;173,1
2018-01-03 12:45;164,3
2018-01-03 13:00;171,35
2018-01-03 13:15;169,8
2018-01-03 13:30;164,3
2018-01-03 13:45;170,05
2018-01-03 14:00;162
2018-01-03 14:15;167,4
2018-01-03 14:30;165,3
2018-01-03 14:45;152,35
2018-01-03 15:00;151,45
2018-01-03 15:15;132,1
2018-01-03 15:30;132,65
2018-01-03 15:45;123,95
2018-01-03 16:00;122,1
2018-01-03 16:15;111,3
2018-01-03 16:30;111,4
2018-01-03 16:45;108,25
2018-01-03 17:00;105,15
2018-01-03 17:15;105,8
2018-01-03 17:30;108,4
2018-01-03 17:45;118,4
2018-01-03 18:00;118,2
2018-01-03 18:15;122,2
2018-01-03 18:30;118,85
2018-01-03 18:45;111,95
2018-01-03 19:00;112,65
2018-01-03 19:15;108,55
2018-01-03 19:30;115,15
2018-01-03 19:45;110,55
2018-01-03 20:00;112,2
2018-01-03 20:15;106,8
2018-01-03 20:30;103,7
2018-01-03 20:45;99,3
2018-01-03 21:00;100,45
2018-01-03 21:15;97,4
2018-01-03 21:30;96,7
2018-01-03 21:45;96,65
2018-01-03 22:00;97
2018-01-03 22:15;96,5
2018-01-03 22:30;95
2018-01-03 22:45;96,3
2018-01-03 23:00;92,75
2018-01-03 23:15;97,25
2018-01-03 23:30;93,85
2018-01-03 23:45;94,1
2018-01-04 00:00;92,85
2018-01-04 00:15;94,5
2018-01-04 00:30;90,4
2018-01-04 00:45;89,45
2018-01-04 01:00;92,8
2018-01-04 01:15;91,4
2018-01-04 01:30;93,15
2018-01-04 01:45;91,35
2018-01-04 02:00;95,4
2018-01-04 02:15;94,85
2018-01-04 02:30;94,1
2018-01-04 02:45;95,3
2018-01-04 03:00;92,6
2018-01-04 03:15;97,75
2018-01-04 03:30;94,6
2018-01-04 03:45;96,25
2018-01-04 04:00;93,7
2018-01-04 04:15;91,5
2018-01-04 04:30;94,95
2018-01-04 04:45;92,25
2018-01-04 05:00;92,5
2018-01-04 05:15;88,45
2018-01-04 05:30;91,2
2018-01-04 05:45;91,9
2018-01-04 06:00;89,15
2018-01-04 06:15;91,7
2018-01-04 06:30;88,35
2018-01-04 06:45;90,65
2018-01-04 07:00;95,1
2018-01-04 07:15;108,65
2018-01-04 07:30;110,25
2018-01-04 07:45;115,8
2018-01-04 08:00;131,7
2018-01-04 08:15;169,15
2018-01-04 08:30;130,6
2018-01-04 08:45;142,15
2018-01-04 09:00;159,65
2018-01-04 09:15;161,55
2018-01-04 09:30;156,85
2018-01-04 09:45;161,95
2018-01-04 10:00;171
2018-01-04 10:15;166,8
2018-01-04 10:30;164,4
2018-01-04 10:45;177,2
2018-01-04 11:00;178,35
2018-01-04 11:15;173,35
2018-01-04 11:30;182,4
2018-01-04 11:45;186,8
2018-01-04 12:00;182,85
2018-01-04 12:15;183,05
2018-01-04 12:30;185,35
2018-01-04 12:45;181,55
2018-01-04 13:00;180,25
2018-01-04 13:15;179,1
2018-01-04 13:30;178,75
2018-01-04 13:45;172,25
2018-01-04 14:00;174,1
2018-01-04 14:15;180,1
2018-01-04 14:30;169,15
2018-01-04 14:45;169,85
2018-01-04 15:00;176,15
2018-01-04 15:15;152,65
2018-01-04 15:30;148,05
2018-01-04 15:45;143,95
2018-01-04 16:00;135,85
2018-01-04 16:15;134,5
2018-01-04 16:30;129,25
2018-01-04 16:45;131,05
2018-01-04 17:00;126,15
2018-01-04 17:15;123,95
2018-01-04 17:30;129,35
2018-01-04 17:45;129,25
2018-01-04 18:00;127
2018-01-04 18:15;125,7
2018-01-04 18:30;125,7
2018-01-04 18:45;122,3
2018-01-04 19:00;123
2018-01-04 19:15;120,4
2018-01-04 19:30;119,3
2018-01-04 19:45;111
2018-01-04 20:00;112,95
2018-01-04 20:15;111,8
2018-01-04 20:30;112,2
2018-01-04 20:45;109,5
2018-01-04 21:00;111,8
2018-01-04 21:15;106,85
2018-01-04 21:30;108,25
2018-01-04 21:45;103,65
2018-01-04 22:00;103
2018-01-04 22:15;100,2
2018-01-04 22:30;102,35
2018-01-04 22:45;101,35
2018-01-04 23:00;104,7
2018-01-04 23:15;98,8
2018-01-04 23:30;101,65
2018-01-04 23:45;101,6
2018-01-05 00:00;100,75
2018-01-05 00:15;95,3
2018-01-05 00:30;95,7
2018-01-05 00:45;93,3
2018-01-05 01:00;93,85
2018-01-05 01:15;92,4
2018-01-05 01:30;95,05
2018-01-05 01:45;93,9
2018-01-05 02:00;96,15
2018-01-05 02:15;94,15
2018-01-05 02:30;94,35
2018-01-05 02:45;92,5
2018-01-05 03:00;93,85
2018-01-05 03:15;91,45
2018-01-05 03:30;92,65
2018-01-05 03:45;93,7
2018-01-05 04:00;94,1
2018-01-05 04:15;90,35
2018-01-05 04:30;90,6
2018-01-05 04:45;90,45
2018-01-05 05:00;90,75
2018-01-05 05:15;88,55
2018-01-05 05:30;89,6
2018-01-05 05:45;88,8
2018-01-05 06:00;90,75
2018-01-05 06:15;89,5
2018-01-05 06:30;91,4
2018-01-05 06:45;87,85
2018-01-05 07:00;90,55
2018-01-05 07:15;90,25
2018-01-05 07:30;98,05
2018-01-05 07:45;114,25
2018-01-05 08:00;167,5
2018-01-05 08:15;118,75
2018-01-05 08:30;139,8
2018-01-05 08:45;139,95
2018-01-05 09:00;140
2018-01-05 09:15;143,7
2018-01-05 09:30;148,6
2018-01-05 09:45;151,25
2018-01-05 10:00;151,7
2018-01-05 10:15;157,45
2018-01-05 10:30;159,95
2018-01-05 10:45;150
2018-01-05 11:00;155,95
2018-01-05 11:15;160
2018-01-05 11:30;157,9
2018-01-05 11:45;154,7
2018-01-05 12:00;162,2
2018-01-05 12:15;147,9
2018-01-05 12:30;164,45
2018-01-05 12:45;159,15
2018-01-05 13:00;154,6
2018-01-05 13:15;156,2
2018-01-05 13:30;153,1
2018-01-05 13:45;139,6
2018-01-05 14:00;146,6
2018-01-05 14:15;139,2
2018-01-05 14:30;143,05
2018-01-05 14:45;135,5
2018-01-05 15:00;127,9
2018-01-05 15:15;123,55
2018-01-05 15:30;123,4
2018-01-05 15:45;119,85
2018-01-05 16:00;116,35
2018-01-05 16:15;108,25
2018-01-05 16:30;105,2
2018-01-05 16:45;98,95
2018-01-05 17:00;106,65
2018-01-05 17:15;104,4
2018-01-05 17:30;109,2
2018-01-05 17:45;109,55
2018-01-05 18:00;118,1
2018-01-05 18:15;113,4
2018-01-05 18:30;118,4
2018-01-05 18:45;111,75
2018-01-05 19:00;111,15
2018-01-05 19:15;108,8
2018-01-05 19:30;108
2018-01-05 19:45;108,25
2018-01-05 20:00;102,85
2018-01-05 20:15;106,5
2018-01-05 20:30;100,3
2018-01-05 20:45;100,6
2018-01-05 21:00;100,6
2018-01-05 21:15;100,65
2018-01-05 21:30;92,75
2018-01-05 21:45;92,6
2018-01-05 22:00;92,65
2018-01-05 22:15;89,35
2018-01-05 22:30;98,2
2018-01-05 22:45;97,4
2018-01-05 23:00;96,65
2018-01-05 23:15;96,45
2018-01-05 23:30;96,5
2018-01-05 23:45;94,35
2018-01-06 00:00;96,7
2018-01-06 00:15;95,5
2018-01-06 00:30;97,15
2018-01-06 00:45;91,5
2018-01-06 01:00;89,25
2018-01-06 01:15;90,75
2018-01-06 01:30;88,6
2018-01-06 01:45;91,1
2018-01-06 02:00;92,6
2018-01-06 02:15;94,05
2018-01-06 02:30;90,15
2018-01-06 02:45;94,7
2018-01-06 03:00;90,9
2018-01-06 03:15;93
2018-01-06 03:30;90,65
2018-01-06 03:45;95,2
2018-01-06 04:00;91,6
2018-01-06 04:15;92,05
2018-01-06 04:30;91,5
2018-01-06 04:45;94,4
2018-01-06 05:00;91,55
2018-01-06 05:15;94,35
2018-01-06 05:30;92,5
2018-01-06 05:45;92,8
2018-01-06 06:00;92,2
2018-01-06 06:15;95,45
2018-01-06 06:30;92,25
2018-01-06 06:45;93,5
2018-01-06 07:00;89,45
2018-01-06 07:15;93,25
2018-01-06 07:30;88,6
2018-01-06 07:45;90,75
2018-01-06 08:00;90,65
2018-01-06 08:15;89,4
2018-01-06 08:30;84,5
2018-01-06 08:45;86,15
2018-01-06 09:00;85,25
2018-01-06 09:15;84,3
2018-01-06 09:30;81,8
2018-01-06 09:45;83,05
2018-01-06 10:00;79,5
2018-01-06 10:15;81,8
2018-01-06 10:30;79,85
2018-01-06 10:45;81,2
2018-01-06 11:00;81,25
2018-01-06 11:15;81,9
2018-01-06 11:30;83,45
2018-01-06 11:45;85,1
2018-01-06 12:00;81,5
2018-01-06 12:15;80,8
2018-01-06 12:30;77,5
2018-01-06 12:45;82,25
2018-01-06 13:00;80,85
2018-01-06 13:15;80,7
2018-01-06 13:30;79
2018-01-06 13:45;80,6
2018-01-06 14:00;79,4
2018-01-06 14:15;81,75
2018-01-06 14:30;80,6
2018-01-06 14:45;80,65
2018-01-06 15:00;79,3
2018-01-06 15:15;79,55
2018-01-06 15:30;78,35
2018-01-06 15:45;80,75
2018-01-06 16:00;77,55
2018-01-06 16:15;80,45
2018-01-06 16:30;79,75
2018-01-06 16:45;82,3
2018-01-06 17:00;81,3
2018-01-06 17:15;84,6
2018-01-06 17:30;88
2018-01-06 17:45;91,5
2018-01-06 18:00;95,75
2018-01-06 18:15;97,25
2018-01-06 18:30;97,9
2018-01-06 18:45;96,55
2018-01-06 19:00;98,85
2018-01-06 19:15;100,65
2018-01-06 19:30;103,75
2018-01-06 19:45;98,45
2018-01-06 20:00;100,7
2018-01-06 20:15;97,2
2018-01-06 20:30;97,2
2018-01-06 20:45;94,9
2018-01-06 21:00;96,85
2018-01-06 21:15;93,95
2018-01-06 21:30;95,25
2018-01-06 21:45;94,55
2018-01-06 22:00;93,25
2018-01-06 22:15;90,4
2018-01-06 22:30;92
2018-01-06 22:45;90,85
2018-01-06 23:00;92,35
2018-01-06 23:15;91,5
2018-01-06 23:30;93,9
2018-01-06 23:45;92,15
2018-01-07 00:00;94,25
2018-01-07 00:15;91,55
2018-01-07 00:30;93,85
2018-01-07 00:45;92,6
2018-01-07 01:00;94,35
2018-01-07 01:15;93,25
2018-01-07 01:30;96
2018-01-07 01:45;93,85
2018-01-07 02:00;98,8
2018-01-07 02:15;96,7
2018-01-07 02:30;93,55
2018-01-07 02:45;91
2018-01-07 03:00;91,6
2018-01-07 03:15;92,05
2018-01-07 03:30;92,15
2018-01-07 03:45;92,45
2018-01-07 04:00;92,9
2018-01-07 04:15;92
2018-01-07 04:30;89,45
2018-01-07 04:45;90,6
2018-01-07 05:00;86,25
2018-01-07 05:15;89,4
2018-01-07 05:30;87,7
2018-01-07 05:45;89,15
2018-01-07 06:00;86,7
2018-01-07 06:15;89,2
2018-01-07 06:30;88
2018-01-07 06:45;88,7
2018-01-07 07:00;87,55
2018-01-07 07:15;89,35
2018-01-07 07:30;84,2
2018-01-07 07:45;88,2
2018-01-07 08:00;82,9
2018-01-07 08:15;84,2
2018-01-07 08:30;82,15
2018-01-07 08:45;86,05
2018-01-07 09:00;84,8
2018-01-07 09:15;85,75
2018-01-07 09:30;80,85
2018-01-07 09:45;82,8
2018-01-07 10:00;81,85
2018-01-07 10:15;82,6
2018-01-07 10:30;80,35
2018-01-07 10:45;80,1
2018-01-07 11:00;82,1
2018-01-07 11:15;83,4
2018-01-07 11:30;84,4
2018-01-07 11:45;85,3
2018-01-07 12:00;83,1
2018-01-07 12:15;81,15
2018-01-07 12:30;81,25
2018-01-07 12:45;81,05
2018-01-07 13:00;80,55
2018-01-07 13:15;85,1
2018-01-07 13:30;89,2
2018-01-07 13:45;89,35
2018-01-07 14:00;89,1
2018-01-07 14:15;88,75
2018-01-07 14:30;90,15
2018-01-07 14:45;80,65
2018-01-07 15:00;83
2018-01-07 15:15;85
2018-01-07 15:30;84,4
2018-01-07 15:45;85,1
2018-01-07 16:00;85,8
2018-01-07 16:15;82,55
2018-01-07 16:30;84,5
2018-01-07 16:45;82,65
2018-01-07 17:00;89,85
2018-01-07 17:15;95,15
2018-01-07 17:30;99,6
2018-01-07 17:45;102,75
2018-01-07 18:00;104,35
2018-01-07 18:15;101,9
2018-01-07 18:30;102,55
2018-01-07 18:45;99,65
2018-01-07 19:00;103,25
2018-01-07 19:15;99,6
2018-01-07 19:30;103,8
2018-01-07 19:45;99,15
2018-01-07 20:00;99
2018-01-07 20:15;96,9
2018-01-07 20:30;96,45
2018-01-07 20:45;91,35
2018-01-07 21:00;92,7
2018-01-07 21:15;91,6
2018-01-07 21:30;93,8
2018-01-07 21:45;92,9
2018-01-07 22:00;92,9
2018-01-07 22:15;87,8
2018-01-07 22:30;91,5
2018-01-07 22:45;87,8
2018-01-07 23:00;92,7
2018-01-07 23:15;89,35
2018-01-07 23:30;92,75
2018-01-07 23:45;90,7

